Weather History for KHSP - December, 2012

Change the Weather History Date:

Saturday, December 29, 2012

  Actual Average Record
Temperature  
Mean Temperature 26 °F -  
Max Temperature 30 °F 33 °F 53 °F (1996)
Min Temperature 21 °F 20 °F 10 °F (2000)
Degree Days  
Heating Degree Days 40    
Moisture  
Dew Point 25 °F    
Average Humidity 96    
Maximum Humidity 100    
Minimum Humidity 86    
Precipitation  
Precipitation 0.09 in - - ()
Sea Level Pressure  
Sea Level Pressure 29.67 in    
Wind  
Wind Speed 11 mph (WSW)    
Max Wind Speed 24 mph    
Max Gust Speed 33 mph    
Visibility 2 miles    
Events Fog , Snow    
Averages and records for this station are not official NWS values.
T = Trace of Precipitation, MM = Missing Value Source: NWS Daily Summary

Daily Weather History Graph

Daily Weather History Graph

Search for Another Location

Airport or City:

Trip Planner

Search our weather history database for the weather conditions in past years. The results will help you decide how hot, cold, wet, or windy it might be!

Date:

Astronomy

Dec. 29, 2012 Rise Set
Actual Time 7:34 AM EST 5:08 PM EST
Civil Twilight 7:05 AM EST 5:38 PM EST
Nautical Twilight 6:32 AM EST 6:11 PM EST
Astronomical Twilight 6:00 AM EST 6:43 PM EST
Moon 6:38 PM EST (12/29) 8:08 AM EST (12/29)
Length of Visible Light 10h 32m
Length of Day
9h 33m
Full, 98% of the Moon is Illuminated
Dec 29
Full
Jan 4
Last Quarter
Jan 11
New
Jan 18
First Quarter
Jan 26
Full

Hourly Weather History & Observations

Time (EST) Temp. Windchill Dew Point Humidity Pressure Visibility Wind Dir Wind Speed Gust Speed Precip Events Conditions
12:15 AM 24.8 °F 17.9 °F 23.0 °F 93% 29.87 in 10.0 mi South 5.8 mph - N/A   Overcast
12:35 AM 24.8 °F 17.9 °F 23.0 °F 93% 29.86 in 10.0 mi SE 5.8 mph - N/A   Overcast
12:55 AM 24.8 °F 17.9 °F 23.0 °F 93% 29.85 in 10.0 mi SE 5.8 mph - N/A   Overcast
1:15 AM 24.8 °F 16.1 °F 23.0 °F 93% 29.84 in 5.0 mi SE 8.1 mph - N/A Snow Light Snow
1:35 AM 24.8 °F 16.1 °F 23.0 °F 93% 29.82 in 10.0 mi SE 8.1 mph - N/A   Overcast
1:55 AM 24.8 °F 17.9 °F 24.8 °F 100% 29.81 in 7.0 mi ESE 5.8 mph - N/A Snow Light Snow
2:15 AM 24.8 °F 15.3 °F 23.0 °F 93% 29.79 in 2.0 mi ESE 9.2 mph - N/A Snow Light Snow
2:35 AM 24.8 °F 16.1 °F 24.8 °F 100% 29.80 in - ESE 8.1 mph - N/A   Unknown
2:55 AM 24.8 °F 16.9 °F 24.8 °F 100% 29.79 in - ESE 6.9 mph - 0.01 in   Overcast
3:15 AM 24.8 °F 14.6 °F 24.8 °F 100% 29.75 in - ESE 10.4 mph 16.1 mph 0.02 in   Overcast
3:35 AM 24.8 °F 14.6 °F 24.8 °F 100% 29.73 in - ESE 10.4 mph - 0.03 in   Overcast
3:55 AM 24.8 °F 16.1 °F 24.8 °F 100% 29.74 in - ESE 8.1 mph - N/A   Overcast
4:15 AM 24.8 °F 16.1 °F 24.8 °F 100% 29.72 in 0.2 mi SE 8.1 mph - N/A Snow Light Snow
4:35 AM 24.8 °F 14.6 °F 24.8 °F 100% 29.70 in 0.2 mi SE 10.4 mph 16.1 mph N/A Snow Snow
4:55 AM 26.6 °F 16.8 °F 24.8 °F 93% 29.68 in 0.2 mi SE 10.4 mph - N/A Snow Light Snow
5:15 AM 24.8 °F 15.3 °F 24.8 °F 100% 29.66 in 0.2 mi ESE 9.2 mph - N/A Snow Light Snow
5:35 AM 24.8 °F 14.6 °F 24.8 °F 100% 29.65 in 0.2 mi SE 10.4 mph - N/A Snow Heavy Snow
5:55 AM 24.8 °F 15.3 °F 24.8 °F 100% 29.66 in 0.2 mi SE 9.2 mph - N/A Snow Snow
6:15 AM 26.6 °F 22.6 °F 24.8 °F 93% 29.66 in 0.2 mi SSE 3.5 mph - N/A Snow Snow
6:35 AM 26.6 °F 21.2 °F 24.8 °F 93% 29.67 in 0.2 mi SSW 4.6 mph - 0.01 in Snow Light Snow
6:55 AM 26.6 °F 20.0 °F 26.6 °F 100% 29.69 in 0.2 mi SW 5.8 mph - N/A Snow Light Snow
7:15 AM 26.6 °F 20.0 °F 26.6 °F 100% 29.69 in 1.8 mi SSW 5.8 mph - N/A Snow Light Snow
7:35 AM 26.6 °F 19.1 °F 26.6 °F 100% 29.68 in 3.0 mi SSW 6.9 mph - N/A Snow Light Snow
7:55 AM 28.4 °F 19.7 °F 28.4 °F 100% 29.66 in 5.0 mi SW 9.2 mph - N/A Snow Light Snow
8:15 AM 28.4 °F 21.2 °F 28.4 °F 100% 29.65 in 1.0 mi SW 6.9 mph - N/A Snow Light Snow
8:35 AM 28.4 °F 19.7 °F 28.4 °F 100% 29.64 in 4.0 mi SW 9.2 mph - N/A Snow Light Snow
8:55 AM 30.2 °F 21.9 °F 30.2 °F 100% 29.63 in 10.0 mi WSW 9.2 mph - N/A   Overcast
9:15 AM 30.2 °F 21.9 °F 30.2 °F 100% 29.64 in 0.2 mi WSW 9.2 mph - 0.01 in Fog Light Freezing Fog
9:35 AM 28.4 °F 19.7 °F 28.4 °F 100% 29.63 in 0.2 mi WSW 9.2 mph - 0.02 in Fog Light Freezing Fog
9:55 AM 30.2 °F 21.3 °F 30.2 °F 100% 29.64 in 0.2 mi WSW 10.4 mph - N/A Snow Light Snow
10:15 AM 30.2 °F 21.3 °F 30.2 °F 100% 29.64 in 0.2 mi West 10.4 mph - 0.01 in Snow Light Snow
10:35 AM 30.2 °F 21.3 °F 30.2 °F 100% 29.63 in 0.2 mi West 10.4 mph - 0.02 in Snow Light Snow
10:55 AM 30.2 °F 20.8 °F 30.2 °F 100% 29.62 in 0.2 mi West 11.5 mph - N/A Snow Light Snow
11:15 AM 30.2 °F 19.8 °F 30.2 °F 100% 29.61 in 0.2 mi West 13.8 mph 19.6 mph N/A Snow Light Snow
11:35 AM 30.2 °F 19.3 °F 30.2 °F 100% 29.59 in 0.2 mi West 15.0 mph - N/A Snow Light Snow
11:55 AM 30.2 °F 20.8 °F 30.2 °F 100% 29.59 in 0.2 mi West 11.5 mph - N/A Fog Light Freezing Fog
12:15 PM 30.2 °F 19.3 °F 30.2 °F 100% 29.57 in 0.2 mi West 15.0 mph 19.6 mph N/A Snow Light Snow
12:35 PM - - - N/A% 29.56 in - West 12.7 mph - N/A   Unknown
12:55 PM - - - N/A% 29.55 in - West 17.3 mph - N/A   Unknown
1:15 PM - - - N/A% 29.55 in - West 16.1 mph - N/A   Unknown
1:35 PM 28.4 °F 16.2 °F 28.4 °F 100% 29.54 in 0.2 mi West 17.3 mph - N/A Snow Light Snow
1:55 PM 28.4 °F 16.2 °F 28.4 °F 100% 29.54 in - WNW 17.3 mph 23.0 mph N/A   Unknown
2:15 PM 28.4 °F 15.8 °F 28.4 °F 100% 29.53 in - WNW 18.4 mph 25.3 mph N/A   Unknown
2:35 PM 28.4 °F 15.4 °F 28.4 °F 100% 29.53 in - West 19.6 mph 27.6 mph N/A   Unknown
2:55 PM 28.4 °F 16.2 °F 26.6 °F 93% 29.54 in - West 17.3 mph 23.0 mph N/A   Unknown
3:15 PM 28.4 °F 15.8 °F 26.6 °F 93% 29.55 in - WNW 18.4 mph 27.6 mph N/A   Unknown
3:35 PM 26.6 °F 13.1 °F 26.6 °F 100% 29.57 in - WNW 19.6 mph 28.8 mph N/A   Unknown
3:55 PM 26.6 °F 13.1 °F 24.8 °F 93% 29.58 in - WNW 19.6 mph 24.2 mph N/A   Unknown
4:15 PM 26.6 °F 14.3 °F 24.8 °F 93% 29.59 in - WNW 16.1 mph 26.5 mph N/A   Overcast
4:35 PM 26.6 °F 12.7 °F 24.8 °F 93% 29.60 in - West 20.7 mph 29.9 mph N/A   Overcast
4:55 PM 26.6 °F 11.7 °F 24.8 °F 93% 29.60 in - WNW 24.2 mph 32.2 mph N/A   Overcast
5:15 PM 26.6 °F 13.1 °F 24.8 °F 93% 29.60 in - WNW 19.6 mph 28.8 mph N/A   Unknown
5:35 PM 24.8 °F 11.5 °F 24.8 °F 100% 29.61 in - WNW 17.3 mph 28.8 mph N/A   Overcast
5:55 PM 24.8 °F 10.7 °F 24.8 °F 100% 29.61 in - WNW 19.6 mph 29.9 mph N/A   Overcast
6:15 PM 24.8 °F 10.7 °F 23.0 °F 93% 29.62 in - WNW 19.6 mph 27.6 mph N/A   Overcast
6:35 PM 24.8 °F 11.1 °F 23.0 °F 93% 29.64 in - West 18.4 mph 25.3 mph N/A   Unknown
6:55 PM 24.8 °F 12.4 °F 21.2 °F 86% 29.66 in - WNW 15.0 mph 24.2 mph N/A   Overcast
7:15 PM 24.8 °F 11.9 °F 21.2 °F 86% 29.67 in - WNW 16.1 mph 26.5 mph N/A   Overcast
7:35 PM 24.8 °F 11.5 °F 21.2 °F 86% 29.67 in - WNW 17.3 mph 29.9 mph N/A   Overcast
7:55 PM 24.8 °F 11.1 °F 21.2 °F 86% 29.69 in - WNW 18.4 mph 28.8 mph N/A   Overcast
8:15 PM 23.0 °F 8.0 °F 21.2 °F 93% 29.70 in - WNW 20.7 mph 27.6 mph N/A   Overcast
8:35 PM 23.0 °F 9.6 °F 21.2 °F 93% 29.71 in - WNW 16.1 mph 28.8 mph N/A   Overcast
8:55 PM 23.0 °F 10.1 °F 21.2 °F 93% 29.73 in - WNW 15.0 mph 27.6 mph N/A   Overcast
9:15 PM 23.0 °F 8.3 °F 21.2 °F 93% 29.73 in - WNW 19.6 mph 31.1 mph N/A   Overcast
9:35 PM 23.0 °F 8.3 °F 21.2 °F 93% 29.74 in - West 19.6 mph 27.6 mph N/A   Overcast
9:55 PM 21.2 °F 6.8 °F 21.2 °F 100% 29.74 in - West 17.3 mph 26.5 mph N/A   Unknown
10:15 PM 21.2 °F 7.8 °F 21.2 °F 100% 29.74 in - WNW 15.0 mph 27.6 mph N/A   Overcast
10:35 PM 21.2 °F 6.0 °F 19.4 °F 93% 29.74 in - WNW 19.6 mph 33.4 mph N/A   Unknown
10:55 PM 21.2 °F 5.6 °F 19.4 °F 93% 29.76 in - WNW 20.7 mph 31.1 mph N/A   Overcast
11:15 PM 21.2 °F 5.2 °F 19.4 °F 93% 29.77 in - WNW 21.9 mph 31.1 mph N/A   Overcast
11:35 PM 21.2 °F 5.2 °F 19.4 °F 93% 29.77 in - WNW 21.9 mph 29.9 mph N/A   Unknown
11:55 PM 21.2 °F 5.6 °F 19.4 °F 93% 29.77 in - WNW 20.7 mph 32.2 mph N/A   Unknown